Weather History for Wenatchee, WA

Change the Weather History Date:

Wednesday, March 9, 2011

  Actual Average Record
Temperature  
Mean Temperature 35 °F 37 °F  
Max Temperature 43 °F 46 °F 67 °F (1963)
Min Temperature 26 °F 28 °F 20 °F (1969)
Degree Days  
Heating Degree Days 30 28  
Month to date heating degree days 291 264  
Since 1 July heating degree days 5573 5463  
Cooling Degree Days 0 0  
Month to date cooling degree days 0 0  
Year to date cooling degree days 0 0  
Moisture  
Dew Point 33 °F    
Average Humidity 93    
Maximum Humidity 100    
Minimum Humidity 76    
Precipitation  
Precipitation 0.17 in 0.05 in 0.30 in (1989)
Month to date precipitation 0.68 0.47  
Year to date precipitation 3.78 3.80  
Snow  
Snow 0.20 in 0.20 in - ()
Month to date snowfall 2.1 1.5  
Since 1 July snowfall 69.3 47.9  
Snow Depth T in    
Sea Level Pressure  
Sea Level Pressure 30.05 in    
Wind  
Wind Speed 2 mph (West)    
Max Wind Speed 16 mph    
Max Gust Speed 21 mph    
Visibility 6 miles    
Events Fog , Rain , Snow    
T = Trace of Precipitation, MM = Missing Value Source: NWS Daily Summary

Daily Weather History Graph

Daily Weather History Graph

Search for Another Location

Airport:

Trip Planner

Search our weather history database for the weather conditions in past years. The results will help you decide how hot, cold, wet, or windy it might be!

Date:

Astronomy

Mar. 09, 2011 Rise Set
Actual Time 6:26 AM PST 5:57 PM PST
Civil Twilight 5:55 AM PST 6:28 PM PST
Nautical Twilight 5:19 AM PST 7:03 PM PST
Astronomical Twilight 4:44 AM PST 7:39 PM PST
Moon 7:56 AM PST (3/9) 11:27 PM PST (3/9)
Length of Visible Light 12h 32m
Length of Day
11h 31m
Waxing Crescent, 21% of the Moon is Illuminated
Mar 9
Waxing Crescent
Mar 12
First Quarter
Mar 19
Full
Mar 26
Last Quarter
Apr 3
New

Hourly Weather History & Observations

Time (PST) Temp. Windchill Dew Point Humidity Pressure Visibility Wind Dir Wind Speed Gust Speed Precip Events Conditions
12:55 AM 32.0 °F - 28.9 °F 88% 30.13 in 10.0 mi Calm Calm - N/A   Scattered Clouds
1:55 AM 32.0 °F - 30.0 °F 92% 30.13 in 10.0 mi Calm Calm - N/A   Overcast
2:55 AM 32.0 °F 25.6 °F 30.0 °F 92% 30.11 in 10.0 mi WSW 6.9 mph - N/A   Overcast
3:55 AM 32.0 °F - 30.0 °F 92% 30.11 in 10.0 mi Calm Calm - N/A   Overcast
4:50 AM 32.0 °F - 30.2 °F 93% 30.09 in 6.0 mi Calm Calm - 0.00 in Snow Light Snow
4:55 AM 32.0 °F - 30.0 °F 92% 30.12 in 5.0 mi Calm Calm - 0.00 in Snow Light Snow
5:26 AM 33.8 °F - 30.2 °F 87% 30.09 in 2.0 mi Calm Calm - 0.00 in Snow Light Snow
5:41 AM 32.0 °F 27.5 °F 30.2 °F 93% 30.09 in 2.5 mi SSE 4.6 mph - 0.00 in Snow Light Snow
5:53 AM 32.0 °F - 32.0 °F 100% 30.09 in 3.0 mi Calm Calm - 0.00 in Snow Light Snow
5:55 AM 32.0 °F - 32.0 °F 100% 30.12 in 3.0 mi Calm Calm - 0.00 in Snow Light Snow
6:09 AM 32.0 °F 27.5 °F 32.0 °F 100% 30.08 in 1.5 mi ESE 4.6 mph - 0.00 in Snow Light Snow
6:17 AM 30.2 °F 25.4 °F 30.2 °F 100% 30.08 in 0.2 mi SE 4.6 mph - 0.00 in Fog , Snow Light Snow
6:25 AM 30.2 °F 24.3 °F 30.2 °F 100% 30.08 in 0.2 mi SSE 5.8 mph - 0.00 in Fog , Snow Light Snow
7:12 AM 32.0 °F - 32.0 °F 100% 30.09 in 0.2 mi Calm Calm - N/A Fog Fog
7:36 AM 32.0 °F - 30.2 °F 93% 30.08 in 1.0 mi Calm Calm - 0.00 in Snow Light Snow
7:55 AM 32.0 °F - 32.0 °F 100% 30.10 in 1.5 mi Calm Calm - 0.00 in Snow Light Snow
8:03 AM 32.0 °F - 32.0 °F 100% 30.06 in 1.8 mi Calm Calm - 0.00 in Snow Light Snow
8:10 AM 32.0 °F - 32.0 °F 100% 30.06 in 2.5 mi Calm Calm - 0.00 in   Overcast
8:19 AM 32.0 °F - 32.0 °F 100% 30.05 in 3.0 mi Calm Calm - 0.00 in   Overcast
8:33 AM 32.0 °F - 32.0 °F 100% 30.05 in 2.5 mi Calm Calm - 0.00 in   Overcast
8:38 AM 32.0 °F 27.5 °F 32.0 °F 100% 30.06 in 1.8 mi SW 4.6 mph - 0.00 in   Overcast
8:42 AM 32.0 °F 28.7 °F 32.0 °F 100% 30.06 in 0.5 mi SW 3.5 mph - 0.00 in Fog Fog
8:46 AM 32.0 °F - 32.0 °F 100% 30.05 in 0.2 mi Calm Calm - 0.00 in Fog Fog
8:55 AM 32.0 °F - 32.0 °F 100% 30.09 in 0.2 mi Calm Calm - 0.00 in Fog Fog
9:07 AM 32.0 °F - 32.0 °F 100% 30.06 in 1.0 mi Calm Calm - N/A   Overcast
9:10 AM 32.0 °F - 32.0 °F 100% 30.05 in 3.0 mi Calm Calm - N/A   Overcast
9:46 AM 33.8 °F - 33.8 °F 100% 30.03 in 6.0 mi Calm Calm - N/A   Overcast
9:55 AM 34.0 °F - 33.1 °F 96% 30.06 in 7.0 mi Calm Calm - N/A   Overcast
10:08 AM 33.8 °F - 33.8 °F 100% 30.02 in 7.0 mi Calm Calm - N/A   Overcast
10:55 AM 36.0 °F 30.3 °F 33.1 °F 89% 30.06 in 9.0 mi WSW 6.9 mph - N/A   Overcast
11:55 AM 37.0 °F 33.3 °F 34.0 °F 89% 30.04 in 9.0 mi ENE 4.6 mph - N/A   Overcast
12:07 PM 37.4 °F 33.8 °F 33.8 °F 87% 30.00 in 9.0 mi NE 4.6 mph - N/A   Overcast
12:55 PM 39.0 °F - 36.0 °F 89% 30.00 in 9.0 mi Calm Calm - N/A   Overcast
1:55 PM 39.9 °F 34.5 °F 36.0 °F 86% 29.99 in 10.0 mi West 8.1 mph - N/A   Overcast
2:55 PM 41.0 °F 35.8 °F 36.0 °F 82% 30.00 in 10.0 mi West 8.1 mph - N/A   Mostly Cloudy
3:13 PM 42.8 °F 39.3 °F 35.6 °F 76% 29.96 in 10.0 mi West 5.8 mph - N/A   Partly Cloudy
3:55 PM 43.0 °F 35.4 °F 36.0 °F 76% 30.00 in 10.0 mi NW 16.1 mph 20.7 mph N/A   Clear
4:55 PM 42.1 °F 34.9 °F 35.1 °F 76% 30.01 in 10.0 mi NW 13.8 mph - N/A   Partly Cloudy
5:55 PM 39.9 °F 34.5 °F 35.1 °F 83% 30.01 in 10.0 mi WNW 8.1 mph - 0.00 in   Mostly Cloudy
6:55 PM 39.0 °F 35.7 °F 34.0 °F 82% 30.02 in 10.0 mi West 4.6 mph - N/A   Clear
7:55 PM 37.0 °F 33.3 °F 35.1 °F 93% 30.00 in 10.0 mi SW 4.6 mph - N/A   Clear
8:55 PM 37.0 °F 33.3 °F 34.0 °F 89% 29.99 in 10.0 mi West 4.6 mph - N/A   Overcast
9:55 PM 37.0 °F 33.3 °F 36.0 °F 96% 29.97 in 10.0 mi NW 4.6 mph - N/A   Overcast
10:55 PM 37.9 °F 34.4 °F 36.0 °F 93% 29.93 in 4.0 mi WNW 4.6 mph - 0.04 in Rain Light Rain
11:39 PM 37.4 °F 34.9 °F 35.6 °F 93% 29.90 in 5.0 mi North 3.5 mph - 0.08 in Rain Light Rain
11:55 PM 37.0 °F - 37.0 °F 100% 29.91 in 4.0 mi Calm Calm - 0.11 in Rain Light Rain